Home   Weather   Hudson   Past weeks

Flag for USA Past Weather in Hudson, Wisconsin, USA — Yesterday and Last 2 Weeks

Now
34 °F

Sunny.


Feels Like: 26 °F
Forecast: 34 / 40 °F
Wind: 10 mph from South

Location: St. Paul Downtown Holman Field

Current Time: Jan 19, 2017 at 11:07:41 am

Latest Report: Jan 19, 2017 at 9:53 am


Visibility: 7 mi

Pressure: 29.84 "Hg

Humidity: 92%

Dew Point: 32 °F

Location of HudsonLocation

Past Weather in Hudson — Graph

°F

Hudson Temperature Yesterday

Maximum temperature yesterday: 40 °F (at 12:53 pm)
Minimum temperature yesterday: 26 °F (at 4:53 am)
Average temperature yesterday: 32 °F

High & Low Weather Summary for the Past Weeks

 TemperatureHumidityPressure
High40 °F (Jan 18, 12:53 pm)100% (Jan 10, 7:27 am)30.91 "Hg (Jan 10, 7:27 am)
Low-8 °F (Jan 6, 1:53 am)50% (Jan 7, 1:53 pm)29.35 "Hg (Jan 10, 11:37 am)
Average13 °F79%30.16 "Hg
* Reported Jan 4 9:53 am — Jan 19 9:53 am, Hudson, Weather by CustomWeather, © 2017

Note: Actual official high and low records may vary slightly from our data, if they occured in-between our weather recording intervals... More about our weather records

Advertising

Hudson Weather History for the Previous 24 Hours

Scroll right to see more
 ConditionsComfort  
Time TempWeatherWind HumidityBarometerVisibility
9:53 am
Thu, Jan 19
34 °FSunny.10 mph92%29.84 "Hg7 mi
8:53 am32 °FSunny.7 mph96%29.84 "Hg7 mi
7:53 am31 °FSunny.6 mph96%29.85 "Hg7 mi
6:53 am30 °FClear.6 mph96%29.85 "Hg7 mi
5:53 am29 °FClear.3 mph100%29.86 "Hg7 mi
4:53 am31 °FIce fog.7 mph96%29.85 "Hg5 mi
3:53 am30 °FIce fog.6 mph100%29.85 "Hg4 mi
2:53 am30 °FIce fog.3 mph100%29.85 "Hg3 mi
1:53 am30 °FIce fog.6 mph100%29.85 "Hg4 mi
1:18 am30 °FIce fog.No wind100%29.84 "Hg3 mi
1:04 am30 °FIce fog.3 mph100%29.84 "Hg2 mi
12:53 am30 °FIce fog.No wind100%29.86 "Hg3 mi
12:24 am29 °FIce fog.No wind100%29.85 "Hg2 mi
12:00 am31 °FIce fog.No wind96%29.85 "Hg3 mi
11:53 pm
Wed, Jan 18
30 °FIce fog.No wind100%29.87 "Hg2 mi
10:53 pm30 °FIce fog.6 mph100%29.87 "Hg3 mi
9:53 pm31 °FIce fog.6 mph100%29.87 "Hg4 mi
8:53 pm31 °FClear.3 mph100%29.88 "Hg8 mi
8:11 pm32 °FClear.5 mph96%29.87 "Hg8 mi
7:53 pm32 °FIce fog.6 mph96%29.89 "Hg6 mi
6:53 pm34 °FFog.7 mph92%29.90 "Hg6 mi
5:53 pm35 °FClear.8 mph88%29.90 "Hg10 mi
4:53 pm36 °FSunny.10 mph85%29.89 "Hg9 mi
3:53 pm38 °FSunny.12 mph79%29.89 "Hg9 mi
2:53 pm40 °FSunny.10 mph73%29.88 "Hg10 mi
1:53 pm40 °FSunny.12 mph70%29.89 "Hg10 mi
12:53 pm40 °FSunny.10 mph70%29.90 "Hg10 mi
11:53 am38 °FSunny.12 mph73%29.92 "Hg10 mi
Weather by CustomWeather, © 2017

See weather overviewHow to use our weather pages